Regional Weather Roundup
Issued by NWS

Home | Current Version | Previous Version | Graphics & Text | Print | Product List | Glossary On
Versions: 1 2 3 4 5 6 7 8 9 10 11 12 13 14 15 16 17 18 19 20 21 22 23 24 25 26 27 28 29 30 31 32 33 34 35 36 37 38 39 40 41 42 43 44 45 46 47 48 49 50
000
ASUS43 KOAX 242210
RWRNE

WEATHER ROUNDUP FOR NEBRASKA
NATIONAL WEATHER SERVICE OMAHA NE
500 PM CDT SUN SEP 24 2017

NOTES: SATELLITE DATA IS BEING USED TO AUGMENT CLOUD COVER ABOVE
       12000 FEET.
       "FAIR" INDICATES FEW OR NO CLOUDS BELOW 12,000 FEET WITH NO
       SIGNIFICANT WEATHER AND/OR OBSTRUCTIONS TO VISIBILITY.


NEZ001>004-019>022-054>056-242300-
NEBRASKA PANHANDLE

CITY           SKY/WX    TMP DP  RH WIND       PRES   REMARKS
SCOTTSBLUFF    CLOUDY    53  43  68 E13       30.02S
ALLIANCE       CLOUDY    50  43  77 NE9       30.02R
CHADRON        CLOUDY    51  42  71 NE12      30.05R
GORDON         CLOUDY    49  44  83 NE9       30.04R
KIMBALL        CLOUDY    49  46  90 E9        30.02F
SIDNEY         LGT RAIN  50  47  89 NE10      30.01S
$$

NEZ057>060-069>072-079>082-242300-
SOUTHWEST NEBRASKA

CITY           SKY/WX    TMP DP  RH WIND       PRES   REMARKS
NORTH PLATTE   LGT RAIN  56  52  86 NE8       29.98S
IMPERIAL       LGT RAIN  53  50  89 NE9       29.98S
LEXINGTON      LGT RAIN  56  55  93 N9        29.96F
MCCOOK         LGT RAIN  57  55  93 N9        29.96F
OGALLALA       CLOUDY    55  50  84 NE9       30.00S
$$

NEZ005>010-023>029-035>040-094-242300-
NORTH CENTRAL NEBRASKA

CITY           SKY/WX    TMP DP  RH WIND       PRES   REMARKS
VALENTINE      CLOUDY    55  48  77 N14       30.01F
AINSWORTH      CLOUDY    55  50  83 N10       30.01S
BROKEN BOW     CLOUDY    58  52  80 N9        29.97S
O`NEILL        CLOUDY    56  54  94 NW9       29.99R
ORD            CLOUDY    57  51  80 N10       29.95F
THEDFORD       CLOUDY    56  49  77 NE9       30.01R
$$

NEZ041-046>049-061>064-073>077-083>087-242300-
SOUTH CENTRAL NEBRASKA

CITY           SKY/WX    TMP DP  RH WIND       PRES   REMARKS
GRAND ISLAND   CLOUDY    61  57  87 N13       29.94S
AURORA         CLOUDY    64  59  84 NW10      29.92S
HASTINGS       CLOUDY    62  59  90 N12       29.94R
HEBRON         CLOUDY    82  63  52 W10G16    29.87R
HOLDREGE       CLOUDY    58  56  94 N7        29.95R
KEARNEY        CLOUDY    58  56  93 N14       29.95F
YORK           PTSUNNY   73  63  68 NW14      29.91R
$$

NEZ011>018-030>034-042>045-242300-
NORTHEAST NEBRASKA

CITY           SKY/WX    TMP DP  RH WIND       PRES   REMARKS
NORFOLK        CLOUDY    61  58  90 NW16      29.92S
ALBION         CLOUDY    58  56  92 N13       29.94F
BLAIR          PTSUNNY   72  68  87 CALM      29.87F
COLUMBUS       CLOUDY    70  63  78 NW13      29.90S
FREMONT        CLOUDY    80  62  53 S9        29.86F
TEKAMAH        CLOUDY    77  65  66 S12G23    29.86S
WAYNE          CLOUDY    68  62  83 NW12G21   29.92R
$$

NEZ050>053-065>068-078-088>093-242300-
SOUTHEAST NEBRASKA

CITY           SKY/WX    TMP DP  RH WIND       PRES   REMARKS
LINCOLN        CLOUDY    82  66  58 S12       29.86F
OMAHA EPPLEY   PTSUNNY   74  68  81 NE6       29.87R
BEATRICE       CLOUDY    85  66  52 S9        29.86F
FALLS CITY     MOSUNNY   87  62  43 S16G23    29.87F
NEBRASKA CITY  CLOUDY    81  63  54 SE9       29.88R
PLATTSMOUTH    MOSUNNY   85  64  49 SW12      29.87F
$$

NEZ044-045-051>053-067-242300-
OMAHA AREA

CITY           SKY/WX    TMP DP  RH WIND       PRES   REMARKS
OMAHA EPPLEY   PTSUNNY   74  68  81 NE6       29.87R
BLAIR          PTSUNNY   72  68  87 CALM      29.87F
FREMONT        CLOUDY    80  62  53 S9        29.86F
MILLARD        CLOUDY    79  66  65 S3        29.86F
OFFUTT AFB     PTSUNNY   81  66  61 NW5       29.86F
PLATTSMOUTH    MOSUNNY   85  64  49 SW12      29.87F
WAHOO          FAIR      78  66  66 S9        29.86F
$$




USA.gov is the U.S. government's official web portal to all federal, state and local government web resources and services.